Terminal Aerodrome Forecast
Issued by NWS

Home | Current Version | Previous Version | Text Only | Print | Product List | Glossary Off
Versions: 1 2 3 4 5 6 7 8 9 10 11 12 13 14 15 16 17

000
FTUS43 KBIS 291649 AAA
TAFMOT
TAF AMD
KMOT 291649Z 2917/3012 20005KT 3SM FU OVC029
     FM292000 19014G20KT 5SM FU FEW250
     FM300300 17011KT P6SM FEW250=

USA.gov is the U.S. government's official web portal to all federal, state and local government web resources and services.